Indianapolis Mount Comfort, IN

2:58 AM EDT on May 25, 2017 (GMT -0400)
Mount Comfort

Weather History for KMQJ - December, 2013

Change the Weather History Date:

Tuesday, December 31, 2013

  Actual Average (KEYE) Record (KEYE)
Temperature  
Mean Temperature 26 °F -  
Max Temperature 30 °F 34 °F 61 °F (2010)
Min Temperature 21 °F 21 °F 6 °F (1998)
Degree Days  
Heating Degree Days 40    
Moisture  
Dew Point 16 °F    
Average Humidity 69    
Maximum Humidity 86    
Minimum Humidity 51    
Precipitation  
Precipitation 0.00 in - - ()
Sea Level Pressure  
Sea Level Pressure 30.25 in    
Wind  
Wind Speed 10 mph (WSW)    
Max Wind Speed 17 mph    
Max Gust Speed 22 mph    
Visibility 10 miles    
Events      
Averages and records for this station are not official NWS values.
T = Trace of Precipitation, MM = Missing Value Source: NWS Daily Summary

Daily Weather History Graph

Daily Weather History Graph

Search for Another Location

Airport or City:

Trip Planner

Search our weather history database for the weather conditions in past years. The results will help you decide how hot, cold, wet, or windy it might be!

Date:

Astronomy

Dec. 31, 2013 Rise Set
Actual Time 8:04 AM EST 5:28 PM EST
Civil Twilight 7:34 AM EST 5:59 PM EST
Nautical Twilight 7:00 AM EST 6:33 PM EST
Astronomical Twilight 6:27 AM EST 7:05 PM EST
Moon 6:57 AM EST (12/31) 5:04 PM EST (12/31)
Length of Visible Light 10h 24m
Length of Day
9h 23m
Waning Crescent, 1% of the Moon is Illuminated
Dec 31
Waning Crescent
Jan 1
New
Jan 7
First Quarter
Jan 15
Full
Jan 24
Last Quarter

Hourly Weather History & Observations

Time (EST) Temp. Windchill Dew Point Humidity Pressure Visibility Wind Dir Wind Speed Gust Speed Precip Events Conditions
12:15 AM 21.2 °F 10.9 °F 14.0 °F 74% 30.17 in 10.0 mi SW 9.2 mph - N/A   Clear
12:34 AM 21.2 °F 10.9 °F 14.0 °F 74% 30.18 in 10.0 mi WSW 9.2 mph - N/A   Clear
12:54 AM 21.2 °F 8.9 °F 14.0 °F 74% 30.18 in 10.0 mi WSW 12.7 mph - N/A   Clear
1:15 AM 21.2 °F 10.9 °F 14.0 °F 74% 30.17 in 10.0 mi WSW 9.2 mph - N/A   Clear
1:34 AM 21.2 °F 10.1 °F 12.2 °F 68% 30.17 in 10.0 mi WSW 10.4 mph - N/A   Clear
1:54 AM 21.2 °F 9.5 °F 12.2 °F 68% 30.18 in 10.0 mi West 11.5 mph - N/A   Clear
2:15 AM 21.2 °F 8.9 °F 12.2 °F 68% 30.17 in 10.0 mi West 12.7 mph - N/A   Clear
2:34 AM 21.2 °F 8.9 °F 12.2 °F 68% 30.17 in 10.0 mi West 12.7 mph - N/A   Clear
2:54 AM 21.2 °F 10.9 °F 12.2 °F 68% 30.17 in 10.0 mi WSW 9.2 mph 17.3 mph N/A   Mostly Cloudy
3:15 AM 21.2 °F 10.9 °F 14.0 °F 74% 30.17 in 10.0 mi WSW 9.2 mph - N/A   Mostly Cloudy
3:34 AM 21.2 °F 8.9 °F 15.8 °F 80% 30.18 in 5.0 mi West 12.7 mph - N/A   Overcast
3:54 AM 21.2 °F 8.3 °F 15.8 °F 80% 30.17 in 10.0 mi West 13.8 mph - N/A   Mostly Cloudy
4:15 AM 21.2 °F 8.3 °F 15.8 °F 80% 30.17 in 10.0 mi WSW 13.8 mph - N/A   Mostly Cloudy
4:34 AM 21.2 °F 7.3 °F 15.8 °F 80% 30.17 in 10.0 mi West 16.1 mph 21.9 mph N/A   Mostly Cloudy
4:54 AM 21.2 °F 7.3 °F 14.0 °F 74% 30.17 in 10.0 mi West 16.1 mph - N/A   Mostly Cloudy
5:15 AM 21.2 °F 8.3 °F 14.0 °F 74% 30.16 in 10.0 mi West 13.8 mph 19.6 mph N/A   Mostly Cloudy
5:34 AM 21.2 °F 8.3 °F 14.0 °F 74% 30.18 in 10.0 mi West 13.8 mph - N/A   Overcast
5:54 AM 21.2 °F 8.3 °F 14.0 °F 74% 30.18 in 10.0 mi West 13.8 mph 19.6 mph N/A   Overcast
6:15 AM 21.2 °F 7.8 °F 14.0 °F 74% 30.19 in 10.0 mi WNW 15.0 mph 20.7 mph N/A   Mostly Cloudy
6:34 AM 21.2 °F 8.3 °F 14.0 °F 74% 30.19 in 10.0 mi WNW 13.8 mph - N/A   Mostly Cloudy
6:54 AM 21.2 °F 9.5 °F 14.0 °F 74% 30.21 in 10.0 mi WNW 11.5 mph 18.4 mph N/A   Mostly Cloudy
7:15 AM 21.2 °F 10.9 °F 14.0 °F 74% 30.22 in 10.0 mi WNW 9.2 mph - N/A   Overcast
7:34 AM 21.2 °F 8.3 °F 14.0 °F 74% 30.23 in 10.0 mi West 13.8 mph - N/A   Mostly Cloudy
7:54 AM 21.2 °F 8.9 °F 14.0 °F 74% 30.24 in 10.0 mi West 12.7 mph - N/A   Overcast
8:15 AM 21.2 °F 7.8 °F 14.0 °F 74% 30.25 in 10.0 mi West 15.0 mph 19.6 mph N/A   Overcast
8:34 AM 21.2 °F 9.5 °F 14.0 °F 74% 30.27 in 10.0 mi West 11.5 mph - N/A   Mostly Cloudy
8:54 AM 21.2 °F 7.8 °F 14.0 °F 74% 30.29 in 10.0 mi West 15.0 mph - N/A   Mostly Cloudy
9:15 AM 21.2 °F 8.9 °F 14.0 °F 74% 30.31 in 10.0 mi West 12.7 mph - N/A   Scattered Clouds
9:34 AM 21.2 °F 6.8 °F 14.0 °F 74% 30.33 in 10.0 mi West 17.3 mph 21.9 mph N/A   Scattered Clouds
9:55 AM 23.0 °F 10.1 °F 14.0 °F 68% 30.33 in 10.0 mi West 15.0 mph - N/A   Mostly Cloudy
10:14 AM 23.0 °F 10.1 °F 14.0 °F 68% 30.34 in 10.0 mi West 15.0 mph - N/A   Mostly Cloudy
10:34 AM 24.8 °F 14.6 °F 15.8 °F 69% 30.34 in 10.0 mi West 10.4 mph 13.8 mph N/A   Mostly Cloudy
10:55 AM 26.6 °F 15.7 °F 15.8 °F 64% 30.35 in 10.0 mi West 12.7 mph 19.6 mph N/A   Scattered Clouds
11:14 AM 26.6 °F 14.3 °F 15.8 °F 64% 30.34 in 10.0 mi West 16.1 mph - N/A   Scattered Clouds
11:34 AM 26.6 °F 14.3 °F 14.0 °F 59% 30.34 in 10.0 mi West 16.1 mph 21.9 mph N/A   Clear
11:55 AM 26.6 °F 15.7 °F 14.0 °F 59% 30.35 in 10.0 mi West 12.7 mph - N/A   Clear
12:14 PM 28.4 °F 16.6 °F 14.0 °F 55% 30.34 in 10.0 mi WNW 16.1 mph 21.9 mph N/A   Clear
12:34 PM 28.4 °F 17.5 °F 14.0 °F 55% 30.34 in 10.0 mi West 13.8 mph 18.4 mph N/A   Clear
12:55 PM 28.4 °F 18.5 °F 14.0 °F 55% 30.33 in 10.0 mi West 11.5 mph 17.3 mph N/A   Clear
1:14 PM 30.2 °F 20.2 °F 14.0 °F 51% 30.32 in 10.0 mi West 12.7 mph - N/A   Clear
1:34 PM 30.2 °F 21.9 °F 15.8 °F 55% 30.31 in 10.0 mi WSW 9.2 mph - N/A   Clear
1:55 PM 30.2 °F 19.8 °F 15.8 °F 55% 30.31 in 10.0 mi WSW 13.8 mph - N/A   Clear
2:14 PM 30.2 °F 22.6 °F 15.8 °F 55% 30.30 in 10.0 mi West 8.1 mph - N/A   Clear
2:34 PM 30.2 °F 20.8 °F 15.8 °F 55% 30.29 in 10.0 mi WSW 11.5 mph - N/A   Clear
2:55 PM 30.2 °F 22.6 °F 15.8 °F 55% 30.29 in 10.0 mi SW 8.1 mph - N/A   Clear
3:14 PM 30.2 °F 21.3 °F 15.8 °F 55% 30.29 in 10.0 mi SW 10.4 mph - N/A   Scattered Clouds
3:35 PM 30.2 °F 21.9 °F 15.8 °F 55% 30.29 in 10.0 mi WSW 9.2 mph - N/A   Scattered Clouds
3:54 PM 30.2 °F 21.3 °F 17.6 °F 60% 30.28 in 10.0 mi SW 10.4 mph - N/A   Clear
4:14 PM 30.2 °F 21.3 °F 15.8 °F 55% 30.28 in 10.0 mi WSW 10.4 mph - N/A   Clear
4:35 PM 30.2 °F 24.3 °F 17.6 °F 60% 30.28 in 10.0 mi SW 5.8 mph - N/A   Clear
4:54 PM 30.2 °F 26.7 °F 17.6 °F 60% 30.28 in 10.0 mi SW 3.5 mph - N/A   Clear
5:14 PM 28.4 °F 23.3 °F 17.6 °F 64% 30.29 in 10.0 mi SSW 4.6 mph - N/A   Clear
5:35 PM 28.4 °F 24.6 °F 17.6 °F 64% 30.28 in 10.0 mi SSW 3.5 mph - N/A   Clear
5:54 PM 28.4 °F - 17.6 °F 64% 30.27 in 10.0 mi Calm Calm - N/A   Clear
6:14 PM 28.4 °F - 17.6 °F 64% 30.27 in 10.0 mi Calm Calm - N/A   Clear
6:35 PM 28.4 °F - 19.4 °F 69% 30.27 in 10.0 mi Calm Calm - N/A   Clear
6:54 PM 28.4 °F 24.6 °F 19.4 °F 69% 30.26 in 10.0 mi South 3.5 mph - N/A   Clear
6:59 PM 28.4 °F 23.3 °F 19.4 °F 69% 30.26 in 10.0 mi South 4.6 mph - N/A   Clear
7:35 PM 28.4 °F - 21.2 °F 74% 30.27 in 10.0 mi Calm Calm - N/A   Clear
7:54 PM 28.4 °F 24.6 °F 21.2 °F 74% 30.26 in 10.0 mi SE 3.5 mph - N/A   Clear
8:14 PM 28.4 °F 24.6 °F 21.2 °F 74% 30.25 in 10.0 mi SSE 3.5 mph - N/A   Clear
8:35 PM 28.4 °F 24.6 °F 21.2 °F 74% 30.25 in 10.0 mi SSE 3.5 mph - N/A   Clear
8:54 PM 28.4 °F 23.3 °F 21.2 °F 74% 30.24 in 10.0 mi South 4.6 mph - N/A   Clear
9:14 PM 28.4 °F 22.2 °F 19.4 °F 69% 30.24 in 10.0 mi South 5.8 mph - N/A   Clear
9:35 PM 28.4 °F 22.2 °F 19.4 °F 69% 30.23 in 10.0 mi South 5.8 mph - N/A   Clear
9:54 PM 28.4 °F 23.3 °F 19.4 °F 69% 30.23 in 10.0 mi South 4.6 mph - N/A   Clear
10:14 PM 28.4 °F - 19.4 °F 69% 30.24 in 10.0 mi Calm Calm - N/A   Clear
10:35 PM 26.6 °F 19.1 °F 21.2 °F 80% 30.26 in 10.0 mi NNW 6.9 mph - N/A   Clear
10:54 PM 26.6 °F 20.0 °F 21.2 °F 80% 30.27 in 10.0 mi North 5.8 mph - N/A   Clear
11:15 PM 24.8 °F 20.5 °F 21.2 °F 86% 30.26 in 10.0 mi ENE 3.5 mph - N/A   Clear
11:34 PM 23.0 °F - 19.4 °F 86% 30.25 in 10.0 mi Calm Calm - N/A   Clear
11:54 PM 23.0 °F - 19.4 °F 86% 30.25 in 10.0 mi Calm Calm - N/A   Clear